AFL303 UUEE-UMMS

Flight info

Callsign AFL303
Flight time N/A
Altitude 32000
Route LIDRI3H LIDRI T781 REPNU N858 VEPIS T526 RUHAL RUHAL2H
Aircraft A320/M-SDE3FGHIRWY/LB1

Departure

Time N/A
Airport Sheremetyevo International Airport (UUEE)

Arrival

Time 2026-05-01 07:46
Airport Minsk National Airport (UMMS)
Time Latitude Longitude Altitude Speed Heading
2026-05-01 07:23 54.56203 29.97787 25860 ft 475 kts 231°
2026-05-01 07:23 54.51703 29.89512 24857 ft 469 kts 231°
2026-05-01 07:24 54.49509 29.85500 24405 ft 465 kts 231°
2026-05-01 07:24 54.47297 29.81460 23935 ft 462 kts 231°
2026-05-01 07:24 54.45099 29.77446 23388 ft 458 kts 231°
2026-05-01 07:24 54.42922 29.73467 22940 ft 453 kts 231°
2026-05-01 07:25 54.40780 29.69551 22498 ft 447 kts 231°
2026-05-01 07:25 54.38660 29.65683 22087 ft 442 kts 231°
2026-05-01 07:25 54.36567 29.61872 21671 ft 437 kts 230°
2026-05-01 07:25 54.34491 29.58097 21267 ft 431 kts 230°
2026-05-01 07:26 54.32474 29.54416 20876 ft 426 kts 231°
2026-05-01 07:26 54.30455 29.50721 20492 ft 421 kts 231°
2026-05-01 07:26 54.28473 29.47087 20237 ft 413 kts 231°
2026-05-01 07:26 54.26541 29.43559 20243 ft 398 kts 231°
2026-05-01 07:27 54.24654 29.40124 20229 ft 394 kts 231°
2026-05-01 07:27 54.22784 29.36722 20200 ft 392 kts 231°
2026-05-01 07:27 54.20911 29.33316 20232 ft 393 kts 231°
2026-05-01 07:27 54.19032 29.29908 20240 ft 393 kts 231°
2026-05-01 07:28 54.17159 29.26518 20242 ft 393 kts 231°
2026-05-01 07:28 54.15914 29.24270 20241 ft 393 kts 231°
2026-05-01 07:28 54.13528 29.19654 20241 ft 388 kts 241°
2026-05-01 07:28 54.12233 29.15688 20244 ft 379 kts 253°
2026-05-01 07:29 54.11132 29.11585 20162 ft 379 kts 252°
2026-05-01 07:29 54.10401 29.08870 19612 ft 386 kts 252°
2026-05-01 07:29 54.09269 29.04674 18945 ft 388 kts 251°
2026-05-01 07:29 54.08143 29.00555 18471 ft 375 kts 251°
2026-05-01 07:30 54.07054 28.96615 18016 ft 362 kts 251°
2026-05-01 07:30 54.05652 28.91530 17183 ft 354 kts 251°
2026-05-01 07:30 54.04950 28.88978 16752 ft 351 kts 251°
2026-05-01 07:30 54.03926 28.85240 16139 ft 346 kts 251°
2026-05-01 07:31 54.02915 28.81540 15541 ft 342 kts 251°
2026-05-01 07:31 53.99944 28.70754 13782 ft 331 kts 250°
2026-05-01 07:32 53.98008 28.63763 12574 ft 322 kts 250°
2026-05-01 07:32 53.97059 28.60342 12279 ft 319 kts 249°
2026-05-01 07:33 53.95176 28.53566 11970 ft 318 kts 249°
2026-05-01 07:33 53.94229 28.50169 11814 ft 316 kts 249°
2026-05-01 07:33 53.92139 28.43657 11500 ft 319 kts 234°
2026-05-01 07:34 53.90688 28.40798 11354 ft 317 kts 232°
2026-05-01 07:34 53.87349 28.36545 11218 ft 295 kts 188°
2026-05-01 07:34 53.85395 28.36827 10994 ft 282 kts 152°
2026-05-01 07:35 53.83770 28.38554 10681 ft 274 kts 135°
2026-05-01 07:35 53.82350 28.40675 10361 ft 271 kts 130°
2026-05-01 07:35 53.81002 28.42890 10049 ft 270 kts 130°
2026-05-01 07:35 53.79658 28.45098 9722 ft 269 kts 131°
2026-05-01 07:36 53.78302 28.47263 9388 ft 268 kts 132°
2026-05-01 07:36 53.76930 28.49388 9056 ft 266 kts 133°
2026-05-01 07:36 53.75550 28.51474 8716 ft 265 kts 133°
2026-05-01 07:36 53.74170 28.53530 8380 ft 264 kts 134°
2026-05-01 07:37 53.71190 28.56957 7706 ft 267 kts 169°
2026-05-01 07:37 53.69365 28.56602 7359 ft 266 kts 207°
2026-05-01 07:37 53.67961 28.54665 6989 ft 261 kts 231°
2026-05-01 07:38 53.66761 28.52353 6633 ft 261 kts 233°
2026-05-01 07:38 53.65592 28.50026 6302 ft 260 kts 233°
2026-05-01 07:38 53.63398 28.45226 5307 ft 262 kts 254°
2026-05-01 07:39 53.63281 28.42224 4578 ft 261 kts 290°
2026-05-01 07:39 53.64193 28.39612 3854 ft 263 kts 315°
2026-05-01 07:39 53.66925 28.35637 3197 ft 247 kts 327°
2026-05-01 07:40 53.68326 28.34125 3084 ft 229 kts 330°
2026-05-01 07:40 53.69616 28.32767 2996 ft 207 kts 330°
2026-05-01 07:40 53.70762 28.31537 3006 ft 191 kts 330°
2026-05-01 07:40 53.71866 28.30377 3006 ft 183 kts 331°
2026-05-01 07:41 53.72914 28.29155 3008 ft 182 kts 326°
2026-05-01 07:41 53.73899 28.27815 3008 ft 182 kts 323°
2026-05-01 07:41 53.75820 28.25036 3008 ft 182 kts 322°
2026-05-01 07:42 53.76775 28.23635 3008 ft 181 kts 322°
2026-05-01 07:42 53.77731 28.22231 3001 ft 181 kts 322°
2026-05-01 07:42 53.78672 28.20846 3006 ft 181 kts 322°
2026-05-01 07:42 53.79626 28.19443 2902 ft 181 kts 322°
2026-05-01 07:43 53.80582 28.18035 2696 ft 182 kts 322°
2026-05-01 07:43 53.81516 28.16657 2478 ft 173 kts 322°
2026-05-01 07:43 53.83144 28.14252 2034 ft 142 kts 321°
2026-05-01 07:44 53.84593 28.12114 1671 ft 137 kts 321°
2026-05-01 07:44 53.86032 28.10003 1210 ft 136 kts 321°
2026-05-01 07:45 53.86745 28.08944 999 ft 137 kts 321°
2026-05-01 07:45 53.87462 28.07880 829 ft 137 kts 320°
2026-05-01 07:45 53.88170 28.06818 696 ft 135 kts 322°
2026-05-01 07:45 53.88812 28.05905 666 ft 101 kts 318°
2026-05-01 07:46 53.89202 28.05303 665 ft 51 kts 320°
2026-05-01 07:46 53.89381 28.05024 665 ft 31 kts 319°
2026-05-01 07:46 53.89647 28.04628 665 ft 20 kts 313°
2026-05-01 07:47 53.89708 28.04455 666 ft 15 kts 296°
2026-05-01 07:47 53.89743 28.04317 667 ft 11 kts 290°
2026-05-01 07:47 53.89746 28.04209 666 ft 8 kts 243°
2026-05-01 07:47 53.89710 28.04180 669 ft 0 kts 184°
2026-05-01 07:48 53.89707 28.04180 669 ft 4 kts 184°
2026-05-01 07:48 53.89630 28.04258 669 ft 22 kts 139°
2026-05-01 07:49 53.89515 28.04434 669 ft 21 kts 138°
2026-05-01 07:49 53.89358 28.04658 669 ft 11 kts 155°
2026-05-01 07:49 53.89297 28.04614 667 ft 9 kts 211°
2026-05-01 07:50 53.89243 28.04572 669 ft 8 kts 205°
2026-05-01 07:50 53.89150 28.04504 669 ft 7 kts 201°
2026-05-01 07:50 53.89112 28.04471 667 ft 6 kts 217°
2026-05-01 07:51 53.89097 28.04447 669 ft 0 kts 225°
2026-05-01 07:51 53.89092 28.04440 669 ft 5 kts 225°
2026-05-01 07:52 53.88950 28.04164 669 ft 16 kts 229°
2026-05-01 07:52 53.88886 28.04042 669 ft 10 kts 229°
2026-05-01 07:52 53.88879 28.03942 669 ft 8 kts 291°
2026-05-01 07:53 53.88904 28.03866 669 ft 0 kts 299°
2026-05-01 07:53 53.88922 28.03810 669 ft 7 kts 290°
2026-05-01 07:54 53.88939 28.03707 669 ft 8 kts 303°
2026-05-01 07:55 53.88958 28.03651 667 ft 0 kts 298°
2026-05-01 07:56 53.88965 28.03629 669 ft 1 kts 298°
2026-05-01 07:56 53.88965 28.03626 669 ft 0 kts 298°